ATLAS CENTAUR 2 1 00694U 63047A 26038.14641494 .00001734 00000+0 19900-3 0 9997 2 00694 30.3559 6.3208 0548114 171.1513 189.9213 14.11982970127305 THOR AGENA D R/B 1 00733U 64002A 26038.03104616 .00000344 00000+0 14002-3 0 9995 2 00733 99.1229 49.6990 0032711 349.5241 10.5257 14.34000995233908 SL-3 R/B 1 00877U 64053B 26038.16993470 .00000483 00000+0 11765-3 0 9995 2 00877 65.0762 60.7116 0078228 301.9102 57.4405 14.61335793262337 SL-8 R/B 1 02802U 67045B 26038.19497314 .00000392 00000+0 11597-3 0 9990 2 02802 74.0100 45.0375 0063025 59.0465 301.6865 14.45592695 84613 SL-8 R/B 1 03230U 68040B 26038.02734663 .00005021 00000+0 37322-3 0 9993 2 03230 74.0325 16.3312 0025452 209.1683 150.8085 15.03024030 85406 OAO 2 1 03597U 68110A 26038.15237998 .00000399 00000+0 11272-3 0 9999 2 03597 34.9936 75.7156 0005969 309.3087 50.7074 14.47289100 14677 ISIS 1 1 03669U 69009A 26037.82859485 .00000442 00000+0 30305-3 0 9998 2 03669 88.4554 158.6712 1707837 151.4301 219.2205 11.30400927345042 SERT 2 1 04327U 70009A 26037.84433613 .00000050 00000+0 12517-3 0 9995 2 04327 99.2721 342.6326 0004051 240.4332 178.7127 13.58726656775700 SL-3 R/B 1 05118U 71028B 26038.18475342 .00034341 00000+0 44149-3 0 9995 2 05118 81.2349 89.6407 0017567 41.9114 318.3479 15.58723954983918 ASTEX 1 1 05560U 71089A 26038.19760493 .00000851 00000+0 21658-3 0 9997 2 05560 92.7152 141.8943 0015557 179.4628 180.6598 14.50733468857888 SL-8 R/B 1 05730U 71119B 26037.96275727 .00013169 00000+0 68336-3 0 9995 2 05730 73.8852 233.1150 0553975 206.0517 151.1779 14.36922346651070 OAO 3 (COPERNICUS) 1 06153U 72065A 26037.27426090 .00000579 00000+0 12318-3 0 9991 2 06153 35.0054 116.2956 0007251 264.9979 137.3252 14.59969687841601 ATLAS CENTAUR R/B 1 06155U 72065B 26037.27414771 .00001874 00000+0 25897-3 0 9991 2 06155 35.0009 129.8446 0033096 105.9504 254.4847 14.77594325836610 SL-8 R/B 1 08459U 75112B 26038.17503552 .00000255 00000+0 92597-4 0 9996 2 08459 74.0593 75.0495 0015488 178.8346 181.2847 14.38188563627484 SL-3 R/B 1 10114U 77057B 26038.14956652 .00015440 00000+0 33330-3 0 9998 2 10114 97.5733 208.7559 0008118 40.2279 319.9568 15.44604897663612 SEASAT 1 1 10967U 78064A 26037.99090314 .00000457 00000+0 16607-3 0 9999 2 10967 108.0164 61.0739 0001557 291.5165 68.5815 14.46135167502073 SL-14 R/B 1 11267U 79011B 26038.19737820 .00000887 00000+0 85043-4 0 9997 2 11267 82.5256 125.5027 0016691 154.7231 205.4809 14.91870419524233 SL-8 R/B 1 11574U 79089B 26037.74166158 .00000417 00000+0 13416-3 0 9996 2 11574 74.0697 148.3292 0016486 324.9427 35.0643 14.42331084431647 SL-14 R/B 1 11672U 80005B 26038.19037337 .00001004 00000+0 99209-4 0 9999 2 11672 82.5174 336.1578 0014116 265.1294 94.8313 14.90889510471949 SL-8 R/B 1 12139U 81003B 26038.19381429 .00023000 00000+0 61010-3 0 9999 2 12139 82.9394 318.1973 0263532 285.1770 72.0456 15.09864501310070 SL-3 R/B 1 12465U 81046B 26038.14688254 .00015417 00000+0 36849-3 0 9994 2 12465 81.2345 326.3874 0020641 122.0923 238.2327 15.41135736433720 SL-3 R/B 1 12904U 81103B 26038.11935448 .00006992 00000+0 31339-3 0 9990 2 12904 81.1562 249.2899 0013805 31.8849 328.3215 15.21006417968581 SL-3 R/B 1 13068U 82013B 26038.14058192 .00005696 00000+0 24921-3 0 9997 2 13068 81.1742 196.5611 0021768 283.4992 76.3814 15.21674415399706 SL-3 R/B 1 13154U 82039B 26038.10826766 .00003027 00000+0 18344-3 0 9995 2 13154 81.1615 251.2106 0030058 64.5291 295.9038 15.09911834377024 SL-3 R/B 1 13403U 82079B 26038.14730794 .00007084 00000+0 28608-3 0 9996 2 13403 81.1441 229.1309 0024110 269.9487 89.8983 15.24353781373042 SL-14 R/B 1 13553U 82092B 26037.89544965 .00000787 00000+0 85634-4 0 9997 2 13553 82.5701 170.1931 0021431 46.5174 74.8243 14.86631802324356 SL-3 R/B 1 13819U 83010B 26038.07750344 .00017750 00000+0 36985-3 0 9996 2 13819 81.1023 39.7479 0017844 148.4993 211.7323 15.45275230353217 SL-3 R/B 1 14208U 83075B 26038.10840867 .00013695 00000+0 37017-3 0 9995 2 14208 97.6134 41.5518 0021338 344.7392 15.3206 15.37625429325450 COSMOS 1536 1 14699U 84013A 26037.98374818 .00007815 00000+0 32599-3 0 9992 2 14699 82.5471 138.3565 0015029 35.3976 324.8255 15.23416588267949 SL-14 R/B 1 14820U 84027B 26038.12163892 .00000593 00000+0 64904-4 0 9990 2 14820 82.5401 273.6882 0019499 75.9170 284.4212 14.85946634243095 SL-8 R/B 1 15483U 85006B 26038.19142338 .00000351 00000+0 12498-3 0 9995 2 15483 74.0473 317.2671 0019556 240.9197 229.2515 14.37768033149645 SL-12 R/B(2) 1 15772U 85042D 26037.75114253 .00000154 00000+0 90520-4 0 9996 2 15772 71.1086 153.0916 0035055 177.6024 290.5428 14.21973416109993 SL-14 R/B 1 15945U 85069B 26038.11567080 .00000683 00000+0 74504-4 0 9999 2 15945 82.5240 53.6891 0017349 296.0393 63.9037 14.86397080168295 SL-16 R/B 1 16182U 85097B 26037.92734727 .00000002 00000+0 24995-4 0 9990 2 16182 71.0015 205.3130 0009540 295.7746 178.2537 14.16596309 82878 SL-14 R/B 1 16496U 86006B 26038.16806524 .00001001 00000+0 10365-3 0 9996 2 16496 82.5270 288.4650 0077068 15.0297 345.3183 14.86773364144675 COSMOS 1743 1 16719U 86034A 26038.18666772 .00041116 00000+0 58097-3 0 9991 2 16719 82.5329 105.7867 0005162 56.6888 303.4861 15.56352421175501 SL-14 R/B 1 16792U 86046B 26038.16052558 .00000608 00000+0 67284-4 0 9994 2 16792 82.4817 109.0319 0022338 332.3645 27.6382 14.85560908121877 SL-14 R/B 1 16882U 86055B 26037.83111985 .00000769 00000+0 85690-4 0 9996 2 16882 82.5232 155.6688 0020364 75.6163 43.1775 14.85609873114780 AJISAI (EGS) 1 16908U 86061A 26038.17753471 -.00000110 00000+0 -86224-4 0 9998 2 16908 50.0077 187.1724 0011241 208.4504 125.3139 12.44515353464198 COSMOS 1812 1 17295U 87003A 26038.17102456 .00292364 31461-4 79052-3 0 9998 2 17295 82.4779 230.2063 0000977 325.7607 34.3604 15.94228691139585 SL-14 R/B 1 17567U 87024B 26038.20506170 .00000637 00000+0 69734-4 0 9995 2 17567 82.5293 121.4147 0018321 6.6813 353.4644 14.86102879 83608 COSMOS 1833 1 17589U 87027A 26038.13762595 .00000064 00000+0 60107-4 0 9998 2 17589 70.9212 30.2279 0024877 255.3823 104.4540 14.13056159 6001 SL-16 R/B 1 17590U 87027B 26038.12918094 -.00000139 00000+0 -44955-4 0 9994 2 17590 71.0050 340.8915 0005182 195.5898 164.5067 14.17163738 11011 SL-14 R/B 1 17912U 87038B 26038.18431604 .00000749 00000+0 84144-4 0 9996 2 17912 82.5043 325.5377 0017691 265.4682 94.4514 14.85339112 74705 COSMOS 1844 1 17973U 87041A 26038.20511874 .00000376 00000+0 22012-3 0 9999 2 17973 70.8980 98.4789 0028823 66.9166 293.4989 14.14539320999275 SL-14 R/B 1 18153U 87055B 26038.03184798 .00000743 00000+0 82706-4 0 9992 2 18153 82.4994 17.9215 0022153 113.1773 247.1780 14.85591296 65388 COSMOS 1867 1 18187U 87060A 26038.19116331 .00000003 00000+0 38835-4 0 9993 2 18187 65.0109 32.1130 0014097 276.3508 83.5971 14.31498022 15575 SL-14 R/B 1 18749U 88001B 26038.02504702 .00000649 00000+0 72324-4 0 9995 2 18749 82.5105 224.2030 0017634 344.5630 15.5046 14.85491233 37473 COSMOS 1933 1 18958U 88020A 26038.13500639 .00005177 00000+0 25527-3 0 9998 2 18958 82.5122 281.1418 0003270 326.7584 33.3443 15.17722537 45598 SL-3 R/B 1 19046U 88032B 26038.11505609 .00007578 00000+0 35702-3 0 9993 2 19046 97.5152 21.4949 0025657 345.0019 15.0452 15.19510167 47461 SL-16 R/B 1 19120U 88039B 26037.69484324 -.00000078 00000+0 -14254-4 0 9995 2 19120 71.0150 134.0887 0020858 21.7265 338.4740 14.19611671953986 COSMOS 1953 1 19210U 88050A 26038.17834414 .00012834 00000+0 46922-3 0 9998 2 19210 82.5093 188.9122 0010538 228.3737 131.6601 15.27902425 33126 SL-8 R/B 1 19257U 88053B 26037.87406267 .00000364 00000+0 12648-3 0 9992 2 19257 74.0478 169.2612 0020322 354.3388 156.2040 14.38897204972165 COSMOS 1975 1 19573U 88093A 26037.81079686 .00009252 00000+0 34203-3 0 9998 2 19573 82.5222 148.6597 0010341 279.9775 80.0297 15.27519266 14693 SL-14 R/B 1 19574U 88093B 26038.15131734 .00000569 00000+0 62622-4 0 9999 2 19574 82.5281 70.7198 0021808 136.1397 284.4803 14.85622473996505 SL-16 R/B 1 19650U 88102B 26037.89615352 .00000118 00000+0 83808-4 0 9997 2 19650 70.9970 216.2855 0012336 52.4484 307.7758 14.16146384922532 INTERCOSMOS 24 1 20261U 89080A 26037.74632803 .00000709 00000+0 20507-3 0 9999 2 20261 82.6069 124.5440 1188169 4.6728 356.4357 12.59516015662906 SL-14 R/B 1 20262U 89080C 26037.90906402 .00000514 00000+0 15600-3 0 9999 2 20262 82.5942 192.9462 1229439 255.1403 91.0617 12.50456880656300 DELTA 1 R/B 1 20323U 89089B 26038.13305566 .00000522 00000+0 13803-3 0 9998 2 20323 97.0726 250.4273 0068128 218.3627 141.2716 14.50637371891300 ARIANE 40 R/B 1 20443U 90005H 26038.16774622 .00000376 00000+0 13314-3 0 9991 2 20443 98.3151 99.7284 0009011 299.5427 60.4862 14.39849973888412 DELTA 2 R/B(1) 1 20453U 90008B 26038.04700079 .00076100 00000+0 10098-2 0 9990 2 20453 35.6060 15.2946 0095330 332.8975 26.6804 15.51735671921368 COSMOS 2058 1 20465U 90010A 26038.18901225 .00005131 00000+0 30481-3 0 9992 2 20465 82.4636 77.4750 0012077 82.1778 278.0822 15.11040033937633 SL-14 R/B 1 20466U 90010B 26038.13334546 .00000645 00000+0 75200-4 0 9998 2 20466 82.5030 296.0916 0020923 43.7911 316.4958 14.83542188923950 SL-14 R/B 1 20511U 90018B 26038.18917852 .00000538 00000+0 64565-4 0 9992 2 20511 82.5182 251.6048 0016094 187.5334 172.5641 14.82113295918060 HST 1 20580U 90037B 26037.81329490 .00008603 00000+0 28897-3 0 9991 2 20580 28.4665 250.5538 0001883 124.2340 235.8434 15.28986369768582 SL-16 R/B 1 20625U 90046B 26038.15833215 .00000129 00000+0 91113-4 0 9991 2 20625 71.0000 2.0319 0014613 342.0403 18.0202 14.15005540844072 COSMOS 2084 1 20663U 90055A 26038.16919405 .00003381 00000+0 24701-3 0 9991 2 20663 62.7897 79.6572 0021936 183.6977 176.3965 15.05453600931724 SL-6 R/B(2) 1 20666U 90055D 26038.17709640 .00003691 00000+0 28318-3 0 9995 2 20666 62.7853 357.5995 0020202 338.2431 21.7808 15.03432264933603 SL-8 R/B 1 20775U 90078B 26038.12430907 .00018978 00000+0 55994-3 0 9997 2 20775 82.9020 278.7760 0367200 116.4027 247.5372 14.88052929804752 SL-8 R/B 1 21088U 91006B 26037.98370255 .00000026 00000+0 10144-4 0 9993 2 21088 82.9428 192.8748 0023545 119.9931 0.8838 13.77491992759847 OKEAN-3 1 21397U 91039A 26037.95554753 .00004563 00000+0 32262-3 0 9990 2 21397 82.5182 6.6087 0016497 77.5893 282.7178 15.04560231860414 COSMOS 2151 1 21422U 91042A 26038.19846115 .00002713 00000+0 21587-3 0 9999 2 21422 82.4964 113.0885 0013164 156.3093 203.8740 14.99987219858626 SL-14 R/B 1 21423U 91042B 26038.10074090 .00000506 00000+0 61011-4 0 9991 2 21423 82.4899 248.8735 0016684 346.7344 13.3429 14.81800423848549 ERS-1 1 21574U 91050A 26038.04275588 .00000470 00000+0 16499-3 0 9994 2 21574 98.7896 55.5066 0030961 294.0185 65.7762 14.39424073811328 ARIANE 40 R/B 1 21610U 91050F 26038.16656989 .00000421 00000+0 13866-3 0 9997 2 21610 98.2077 91.5389 0003713 149.2324 210.9084 14.42870815814590 INTERCOSMOS 25 1 21819U 91086A 26037.86188166 .00001154 00000+0 22376-3 0 9990 2 21819 82.6087 328.6369 1486682 183.3455 175.6722 12.11914456492958 SL-8 R/B 1 21876U 92008B 26038.19092538 .00000063 00000+0 49030-4 0 9997 2 21876 82.9267 290.4669 0033758 218.3696 253.5748 13.75969598705229 SL-8 R/B 1 21938U 92020B 26037.93481414 .00000142 00000+0 13167-3 0 9995 2 21938 82.9327 176.5892 0029408 26.0900 91.1263 13.75544791696902 USA 81 1 21949U 92023A 26037.92128344 .00000296 00000+0 10223-3 0 9999 2 21949 85.0119 149.1820 0002549 105.0087 255.1388 14.32356434 90384 COSMOS 2219 1 22219U 92076A 26038.17418407 -.00000132 00000+0 -44483-4 0 9995 2 22219 71.0585 81.8640 0020405 249.1103 110.7835 14.14076807714063 SL-16 R/B 1 22220U 92076B 26038.06672794 .00000173 00000+0 11011-3 0 9999 2 22220 70.9980 252.8814 0011605 150.8095 323.8049 14.16855283717494 COSMOS 2221 1 22236U 92080A 26038.13984429 .00002932 00000+0 25835-3 0 9994 2 22236 82.5059 308.3384 0013001 299.6145 60.3781 14.96078104776225 SL-16 R/B 1 22285U 92093B 26038.13928854 -.00000153 00000+0 -53876-4 0 9994 2 22285 71.0201 68.4017 0005100 325.5996 34.4796 14.15441178708838 COSMOS 2228 1 22286U 92094A 26038.10932884 .00002977 00000+0 25533-3 0 9993 2 22286 82.5157 266.5938 0019184 47.8927 312.3922 14.97050400771488 SL-16 R/B 1 22566U 93016B 26038.10597419 -.00000084 00000+0 -18897-4 0 9995 2 22566 71.0072 279.4199 0010199 356.0853 4.0188 14.15304015697840 COSMOS 2242 1 22626U 93024A 26038.14548498 .00002743 00000+0 23901-3 0 9991 2 22626 82.5193 295.9303 0017688 51.2919 308.9881 14.96422244775820 SL-16 R/B 1 22803U 93059B 26038.19751442 .00000225 00000+0 13515-3 0 9999 2 22803 70.9892 75.4314 0019491 258.3193 101.5744 14.17226937675216 ARIANE 40 R/B 1 22830U 93061H 26038.18248737 .00000279 00000+0 11820-3 0 9995 2 22830 98.4981 107.6623 0010913 20.5486 339.6135 14.32844723689731 COSMOS 2278 1 23087U 94023A 26037.97417979 -.00000189 00000+0 -73860-4 0 9996 2 23087 71.0502 239.3599 0006539 71.3945 288.7887 14.14364063640469 SL-16 R/B 1 23088U 94023B 26037.75182328 -.00000023 00000+0 12581-4 0 9999 2 23088 70.9998 135.8619 0004457 314.1094 45.9661 14.15003498641715 SL-16 R/B 1 23343U 94074B 26038.07916123 .00000690 00000+0 99252-4 0 9992 2 23343 97.7149 70.1312 0005784 332.8982 50.3189 14.79371264682722 SL-16 R/B 1 23405U 94077B 26038.16950539 .00000037 00000+0 43333-4 0 9997 2 23405 70.9814 56.6979 0004363 237.7421 122.3279 14.15556792611918 ARIANE 40+ R/B 1 23561U 95021B 26038.16764017 .00000409 00000+0 14436-3 0 9998 2 23561 98.4560 110.0542 0005994 226.3215 187.7433 14.39749779614859 SL-16 R/B 1 23705U 95058B 26038.03366161 .00000310 00000+0 18300-3 0 9997 2 23705 71.0189 244.6166 0012370 176.1023 184.0199 14.15491427563517 SL-16 R/B 1 24298U 96051B 26038.00455923 .00000078 00000+0 68908-4 0 9992 2 24298 70.7565 240.1888 0017656 190.8812 169.1929 14.12406829517313 ORBVIEW 2 (SEASTAR) 1 24883U 97037A 26038.02752419 .00000439 00000+0 16890-3 0 9992 2 24883 98.8513 201.5363 0002871 134.4893 225.6527 14.35470823504073 SL-16 R/B 1 25400U 98043G 26037.92979722 .00000125 00000+0 71275-4 0 9993 2 25400 98.8205 351.0855 0010887 102.3401 257.8998 14.26042352434601 SL-16 R/B 1 25407U 98045B 26037.98902717 -.00000104 00000+0 -28613-4 0 9995 2 25407 71.0084 246.1368 0005298 65.3371 294.8304 14.16185255422757 ISS (ZARYA) 1 25544U 98067A 26037.85745963 .00012189 00000+0 23308-3 0 9994 2 25544 51.6318 224.7731 0011112 72.2083 288.0117 15.48447561551553 CZ-4B R/B 1 25732U 99025C 26038.10967656 .00000066 00000+0 52420-4 0 9991 2 25732 98.6688 83.1071 0038124 73.5070 305.5811 14.18259191383835 OKEAN-O 1 25860U 99039A 26038.16682434 .00001024 00000+0 14129-3 0 9990 2 25860 97.9510 98.3582 0001890 88.0837 272.0592 14.80285300429879 SL-16 R/B 1 25861U 99039B 26038.17554824 .00000806 00000+0 10905-3 0 9998 2 25861 98.0032 97.3070 0014758 1.9945 358.1324 14.81688141432349 DELTA 2 R/B 1 25876U 99041E 26038.07127911 .00002590 00000+0 45399-3 0 9996 2 25876 51.7647 63.5496 0502343 257.9708 96.4518 14.11713242358700 HELIOS 1B 1 25977U 99064A 26038.17695155 .00002461 00000+0 27737-3 0 9997 2 25977 98.1725 299.5198 0001998 118.0683 242.0735 14.87571201680723 TERRA 1 25994U 99068A 26038.17038218 .00000659 00000+0 14349-3 0 9993 2 25994 97.9658 92.7609 0000946 284.1599 139.5232 14.60981426390621 SL-16 R/B 1 26070U 00006B 26037.78448905 -.00000007 00000+0 20932-4 0 9991 2 26070 71.0029 162.8182 0018434 233.6478 126.2944 14.15820725344180 TITAN 4B R/B 1 26474U 00047B 26038.14874669 .00004847 00000+0 30670-3 0 9999 2 26474 67.9892 126.3740 0037016 72.9683 287.5516 15.09308887388306 ENVISAT 1 27386U 02009A 26037.87922071 .00000207 00000+0 80828-4 0 9999 2 27386 98.3677 352.2206 0001287 91.1052 330.6483 14.39025268254743 IDEFIX & ARIANE 42P R/B 1 27422U 02021B 26037.94060638 .00000442 00000+0 18454-3 0 9990 2 27422 98.5841 336.9207 0010720 279.8267 80.1706 14.31003771239626 AQUA 1 27424U 02022A 26038.16444229 .00001571 00000+0 32392-3 0 9991 2 27424 98.4121 4.9870 0001563 54.3508 35.0968 14.61900780264272 CZ-4B R/B 1 27432U 02024C 26038.16340655 .00000049 00000+0 48111-4 0 9996 2 27432 98.8905 91.7139 0051134 109.4703 318.3857 14.14542108224921 MIDORI II (ADEOS-II) 1 27597U 02056A 26037.86133983 .00000488 00000+0 20968-3 0 9999 2 27597 98.7717 356.1373 0002140 86.3162 273.8264 14.29261474205898 H-2A R/B 1 27601U 02056E 26037.86114762 .00000460 00000+0 17603-3 0 9991 2 27601 98.3148 359.4112 0069027 253.2941 167.2097 14.33738512209691 CZ-4B R/B 1 28059U 03049C 26037.98789654 .00000721 00000+0 17686-3 0 9994 2 28059 98.6846 31.6967 0047558 326.6484 33.1718 14.54986175182139 CZ-2C R/B 1 28222U 04012C 26038.12848833 .00059506 00000+0 70099-3 0 9991 2 28222 97.7303 100.6009 0016151 65.7418 294.5523 15.61045570199506 SL-16 R/B 1 28353U 04021B 26038.12129681 .00000069 00000+0 60672-4 0 9996 2 28353 71.0002 296.6458 0002885 86.3594 273.7859 14.14589586118519 CZ-4B R/B 1 28415U 04035C 26038.08034427 .00010666 00000+0 38051-3 0 9997 2 28415 97.3549 72.6960 0034212 78.1951 282.3123 15.28497441175236 CZ-2C R/B 1 28480U 04046B 26038.19413558 .00000221 00000+0 97756-4 0 9993 2 28480 98.1996 315.0719 0138262 244.8981 113.7801 14.26981317104154 ARIANE 5 R/B 1 28499U 04049H 26038.04676992 .00001472 00000+0 16780-3 0 9999 2 28499 98.2577 205.3681 0085503 90.4291 270.6721 14.85202775141241 CZ-2D R/B 1 28738U 05024B 26038.02309511 .00047372 00000+0 64299-3 0 9994 2 28738 97.3618 52.1092 0007300 120.6328 239.5648 15.57471679135003 ALOS (DAICHI) 1 28931U 06002A 26037.86723214 .00002189 00000+0 37570-3 0 9996 2 28931 98.1170 353.9907 0002011 68.1833 291.9587 14.69707022 68957 H-2A R/B 1 28932U 06002B 26037.98498609 .00010115 00000+0 51485-3 0 9996 2 28932 98.2362 182.3963 0052936 347.0154 12.9710 15.15805365 89788 RESURS-DK 1 1 29228U 06021A 26038.18263942 .00004129 00000+0 24221-3 0 9995 2 29228 69.9349 315.9257 0004755 207.2045 152.8873 15.12565358 82913 CZ-4B R/B 1 29507U 06046C 26038.12972999 .00006755 00000+0 34452-3 0 9999 2 29507 97.5651 83.1180 0033881 16.2062 344.0246 15.16573027 55414 CZ-2C R/B 1 31114U 07010B 26038.15047171 .00000161 00000+0 93071-4 0 9994 2 31114 98.3969 152.9631 0059385 24.0711 336.3221 14.20235512975385 COSMO-SKYMED 1 1 31598U 07023A 26038.17266309 .00005085 00000+0 45510-3 0 9996 2 31598 97.8857 228.9667 0000959 74.4542 285.6784 14.96293773 10340 COSMOS 2428 1 31792U 07029A 26038.09273573 .00000345 00000+0 21074-3 0 9993 2 31792 70.9396 267.5714 0007203 310.8339 49.2157 14.12931658959774 SL-16 R/B 1 31793U 07029B 26037.95935683 .00000451 00000+0 25832-3 0 9999 2 31793 70.9731 236.9806 0001895 276.4183 190.8427 14.14830269961027 KORONAS-FOTON 1 33504U 09003A 26038.15289674 .00012767 00000+0 29313-3 0 9991 2 33504 82.4327 307.6026 0008882 268.6714 91.3515 15.42521001941039 CZ-2C R/B 1 37731U 11030B 26037.87366401 .00002065 00000+0 26604-3 0 9992 2 37731 97.8493 355.7690 0054209 90.5510 329.0695 14.81103298785537 H-2A R/B 1 38341U 12025E 26037.87436512 .00004490 00000+0 40935-3 0 9993 2 38341 98.4682 2.4748 0046016 54.4497 306.0999 14.94896263743612 SHIJIAN-16 (SJ-16) 1 39358U 13057A 26038.19199007 .00001749 00000+0 17393-3 0 9995 2 39358 74.9703 242.8196 0016890 188.4751 171.6155 14.92236700666952 SL-4 R/B 1 39679U 14021B 26036.67310653 .00019171 00000+0 43274-3 0 9991 2 39679 51.6065 133.3414 0099048 346.3080 13.5221 15.38168742651340 ALOS-2 1 39766U 14029A 26038.21644645 .00000377 00000+0 57341-4 0 9998 2 39766 97.9219 137.2522 0001411 98.1153 262.0219 14.79491352632363 YAOGAN-29 1 41038U 15069A 26038.22922387 .00000994 00000+0 12918-3 0 9996 2 41038 98.0172 66.5725 0002863 86.5831 273.5709 14.82961008551368 ASTRO-H (HITOMI) 1 41337U 16012A 26037.62954425 .00004541 00000+0 26847-3 0 9996 2 41337 30.9980 196.9497 0009845 20.3428 339.7601 15.09777198547536 HXMT (HUIYAN) 1 42758U 17034A 26037.90253491 .00009087 00000+0 45674-3 0 9994 2 42758 43.0135 187.7820 0031038 37.9563 322.3465 15.17057041477863 CZ-2C R/B 1 43521U 18054D 26037.57006065 .00324769 41408-4 80127-3 0 9993 2 43521 35.1293 157.6454 0013108 0.8200 359.2560 15.94764434423900 SAOCOM 1A 1 43641U 18076A 26038.17819858 .00000224 00000+0 34726-4 0 9999 2 43641 97.8867 226.7835 0001409 83.1482 276.9892 14.82155689396840 H-2A R/B 1 43682U 18084L 26038.14219367 .00024843 00000+0 61650-3 0 9997 2 43682 98.8761 249.0330 0026354 128.1951 232.1670 15.40004170401077 SAOCOM 1B 1 46265U 20059A 26038.14193424 .00000948 00000+0 12562-3 0 9995 2 46265 97.8863 225.8461 0001352 84.8243 275.3124 14.82163627294227 CSS (TIANHE) 1 48274U 21035A 26038.11392178 .00023168 00000+0 28917-3 0 9996 2 48274 41.4674 34.0120 0004962 18.8845 341.2177 15.59307546272830 COSMOS 2550 1 48865U 21056A 26038.19580807 .00006136 00000+0 19214-3 0 9997 2 48865 67.1449 133.1709 0008332 269.7864 90.2335 15.33837232258785 CZ-2C R/B 1 52794U 22058K 26038.20889618 .00037530 00000+0 59165-3 0 9991 2 52794 50.1885 114.8234 0042336 71.3421 289.2139 15.52100302205397 CZ-2C R/B 1 54039U 22132E 26037.97539440 .00047500 00000+0 60049-3 0 9997 2 54039 97.2961 40.4283 0017938 196.3338 163.7343 15.59201995185589 GSLV R/B 1 54149U 22138AN 26038.03158677 .00004448 00000+0 38755-3 0 9995 2 54149 87.3860 176.6210 0019386 262.3587 97.5442 14.96538472179344 XRISM 1 57800U 23137A 26037.33484544 .00008547 00000+0 49179-3 0 9995 2 57800 31.0019 126.4010 0007996 85.4035 274.7516 15.11106214133041 ACS3 1 59588U 24077B 26037.80910563 .00027485 00000+0 22704-1 0 9996 2 59588 97.2238 345.8632 0045469 174.1822 185.9879 13.88347007 89917 SZ-21 MODULE 1 66515U 25246C 26038.04255016 .00039980 00000+0 37769-3 0 9997 2 66515 41.4765 31.6776 0002983 280.6957 79.3548 15.66234853 13262